This is the latest recevied weather packets stored in our database for station/object DD3UTS-13. If no packets are shown the sender has not sent any weather packets the latest 1 day(s).
| Time | Temp. | Humidity | Pressure | Rain* | Wind** | Luminosity | Snow |
|---|---|---|---|---|---|---|---|
| 1778076632 | 20° C | 52% | 1004.9 hPa | 0 mm | - | 622 W/m² | - |
| 1778076332 | 19.44° C | 54% | 1005.1 hPa | 0 mm | - | 644 W/m² | - |
| 1778076032 | 19.44° C | 54% | 1005.1 hPa | 0 mm | - | 556 W/m² | - |
| 1778074532 | 19.44° C | 54% | 1005 hPa | 0 mm | - | 666 W/m² | - |
| 1778073932 | 20° C | 54% | 1005.2 hPa | 0 mm | - | 684 W/m² | - |
| 1778073032 | 18.33° C | 56% | 1005.2 hPa | 0 mm | - | 312 W/m² | - |
| 1778072132 | 18.89° C | 54% | 1005.2 hPa | 0 mm | - | 278 W/m² | - |
| 1778071832 | 18.89° C | 56% | 1005.3 hPa | 0 mm | - | 405 W/m² | - |
| 1778071232 | 18.33° C | 58% | 1005.5 hPa | 0 mm | - | 380 W/m² | - |
| 1778070932 | 18.33° C | 57% | 1005.4 hPa | 0 mm | - | 303 W/m² | - |
| 1778069732 | 18.89° C | 56% | 1005.5 hPa | 0 mm | - | 356 W/m² | - |
| 1778069432 | 18.89° C | 55% | 1005.4 hPa | 0 mm | - | 477 W/m² | - |
| 1778069132 | 18.89° C | 56% | 1005.4 hPa | 0 mm | - | 512 W/m² | - |
| 1778068832 | 18.89° C | 55% | 1005.4 hPa | 0 mm | - | 432 W/m² | - |
| 1778068532 | 19.44° C | 54% | 1005.4 hPa | 0 mm | - | 558 W/m² | - |
| 1778068232 | 19.44° C | 55% | 1005.4 hPa | 0 mm | - | 698 W/m² | - |
| 1778067932 | 18.89° C | 54% | 1005.3 hPa | 0 mm | - | 596 W/m² | - |
| 1778067332 | 19.44° C | 55% | 1005.4 hPa | 0 mm | - | 631 W/m² | - |
| 1778066732 | 18.33° C | 56% | 1005.4 hPa | 0 mm | - | 641 W/m² | - |
| 1778066432 | 18.33° C | 57% | 1005.5 hPa | 0 mm | - | 608 W/m² | - |
| 1778065532 | 18.33° C | 61% | 1005.6 hPa | 0 mm | - | 596 W/m² | - |
| 1778065232 | 18.33° C | 61% | 1005.5 hPa | 0 mm | - | 596 W/m² | - |
| 1778064632 | 18.33° C | 60% | 1005.5 hPa | 0 mm | - | 515 W/m² | - |
| 1778063732 | 17.78° C | 60% | 1005.4 hPa | 0 mm | - | 599 W/m² | - |
| 1778063132 | 18.33° C | 60% | 1005.7 hPa | 0 mm | - | 591 W/m² | - |
* Rain latest 24 hours (hover to see other rain measurements)
** Current wind speed in m/s (hover to see current wind gust speed)